Orbital Elements
Epoch 1997 Aug. 20.0 TT = JDT 2450680.5
T 1997 Aug. 7.04355 TT MPC
q 2.0002384 (2000.0) P Q
n 0.13687934 Peri. 192.76700 +0.72730107 -0.68406815
a 3.7288717 Node 210.62837 +0.63887867 +0.70436897
e 0.4635808 Incl. 6.25779 +0.25073331 +0.18951287
P 7.20
From 4943 observations 1996 June 18-2012 Mar. 15, mean residual 0".6.
Nongravitational parameters A1 = +0.76, A2 = -0.1245.
|